LIPZ Weather Reports


time (UTC)temp
C
wind
direction
speed
KPH
gust
KPH
rain 1hr
cm
rain 24hr
cm
rain mn
cm
humidity
%
barometer
mb
20260503021504 12 340 1.6 0.0 0.00 0.00 0.00 71 1019.0
20260503013005 12 350 3.2 0.0 0.00 0.00 0.00 66 1019.0
20260503010004 15 350 8.0 0.0 0.00 0.00 0.00 58 1020.0
20260503004504 15 270 8.0 0.0 0.00 0.00 0.00 58 1020.0
20260503003004 15 270 8.0 0.0 0.00 0.00 0.00 58 1020.0
20260503001504 15 250 11.3 0.0 0.00 0.00 0.00 67 1020.0
20260503000004 15 250 11.3 0.0 0.00 0.00 0.00 67 1020.0
20260502234504 16 240 11.3 0.0 0.00 0.00 0.00 63 1020.0
20260502233004 16 240 11.3 0.0 0.00 0.00 0.00 63 1020.0
20260502231503 16 230 11.3 0.0 0.00 0.00 0.00 72 1020.0
20260502230005 16 230 11.3 0.0 0.00 0.00 0.00 72 1020.0
20260502224504 17 220 11.3 0.0 0.00 0.00 0.00 72 1020.0
20260502213004 17 250 11.3 0.0 0.00 0.00 0.00 51 1020.0
20260502211504 17 240 14.5 0.0 0.00 0.00 0.00 45 1020.0
20260502204504 17 250 11.3 0.0 0.00 0.00 0.00 63 1020.0
20260502203005 17 250 11.3 0.0 0.00 0.00 0.00 63 1020.0
20260502201503 17 220 9.7 0.0 0.00 0.00 0.00 72 1020.0
20260502193004 18 190 9.7 0.0 0.00 0.00 0.00 68 1020.0
20260502184503 20 180 11.3 0.0 0.00 0.00 0.00 52 1020.0
20260502183005 20 180 11.3 0.0 0.00 0.00 0.00 52 1020.0
20260502163004 21 180 11.3 0.0 0.00 0.00 0.00 46 1021.0
20260502161503 22 180 12.9 0.0 0.00 0.00 0.00 40 1021.0
20260502123005 21 180 9.7 0.0 0.00 0.00 0.00 40 1024.0
20260502114504 20 190 9.7 0.0 0.00 0.00 0.00 45 1024.0
20260502113005 20 190 9.7 0.0 0.00 0.00 0.00 45 1024.0
20260502104504 17 190 8.0 0.0 0.00 0.00 0.00 52 1025.0
20260502070004 12 60 4.8 0.0 0.00 0.00 0.00 62 1026.0
20260502064504 12 20 9.7 0.0 0.00 0.00 0.00 62 1026.0
20260502063004 12 20 9.7 0.0 0.00 0.00 0.00 62 1026.0
20260502060004 11 20 11.3 0.0 0.00 0.00 0.00 66 1026.0
20260502054504 10 350 9.7 0.0 0.00 0.00 0.00 66 1026.0
20260502053004 10 350 9.7 0.0 0.00 0.00 0.00 66 1026.0
20260502051504 10 340 8.0 0.0 0.00 0.00 0.00 66 1026.0
20260502044505 8 340 8.0 0.0 0.00 0.00 0.00 70 1026.0
20260502043004 8 340 8.0 0.0 0.00 0.00 0.00 70 1026.0
20260502041504 8 330 8.0 0.0 0.00 0.00 0.00 70 1026.0
20260502033004 8 340 3.2 0.0 0.00 0.00 0.00 76 1026.0
20260502024504 11 0 1.6 0.0 0.00 0.00 0.00 62 1026.0
20260502023005 11 0 1.6 0.0 0.00 0.00 0.00 62 1026.0